Ouarzazate, Morocco

1:41 PM WET on January 20, 2018 (GMT +0000)
Ouarzazate

Weather History for GMMZ - February, 2014

Change the Weather History Date:

Thursday, February 13, 2014

  Actual Average Record
Temperature  
Mean Temperature 56 °F -  
Max Temperature 73 °F 69 °F - ()
Min Temperature 40 °F 42 °F - ()
Degree Days  
Heating Degree Days 8    
Growing Degree Days 6 (Base 50)    
Moisture  
Dew Point 15 °F    
Average Humidity 20    
Maximum Humidity 88    
Minimum Humidity 5    
Precipitation  
Precipitation 0.00 in 0.01 in - ()
Sea Level Pressure  
Sea Level Pressure 30.31 in    
Wind  
Wind Speed 2 mph ()    
Max Wind Speed 8 mph    
Max Gust Speed -    
Visibility 9.0 miles    
Events      
T = Trace of Precipitation, MM = Missing Value Source: Averaged Metar Reports

Daily Weather History Graph

Daily Weather History Graph

Search for Another Location

Airport or City:

Trip Planner

Search our weather history database for the weather conditions in past years. The results will help you decide how hot, cold, wet, or windy it might be!

Date:

Astronomy

Feb. 13, 2014 Rise Set
Actual Time 7:10 AM WET 6:13 PM WET
Civil Twilight 6:45 AM WET 6:38 PM WET
Nautical Twilight 6:17 AM WET 7:06 PM WET
Astronomical Twilight 5:49 AM WET 7:34 PM WET
Moon 5:09 PM WET (2/13) 5:54 AM WET (2/13)
Length of Visible Light 11h 52m
Length of Day
11h 03m
Waxing Gibbous, 98% of the Moon is Illuminated
Feb 13
Waxing Gibbous
Feb 14
Full
Feb 22
Last Quarter
Mar 1
New
Mar 8
First Quarter

Hourly Weather History & Observations

Time (WET) Temp. Dew Point Humidity Pressure Visibility Wind Dir Wind Speed Gust Speed Precip Events Conditions
12:00 AM 53 °F 14 °F 11%  in 12 mi NW 2.3 mph - -  
12:00 AM 51.8 °F 14.0 °F 22% 30.33 in - Variable 2.3 mph - N/A   Clear
1:00 AM 53.6 °F 14.0 °F 21% 30.33 in - Calm Calm - N/A   Clear
1:10 AM 53.6 °F 14.0 °F 21% 30.33 in - Calm Calm - N/A   Clear
2:00 AM 48.2 °F 12.2 °F 24% 30.30 in - Calm Calm - N/A   Clear
3:00 AM 47 °F 13 °F 14%  in 6 mi West 3.5 mph - -  
3:00 AM 48.2 °F 12.2 °F 24% 30.30 in - Variable 1.2 mph - N/A   Clear
4:00 AM 46.4 °F 12.2 °F 25% 30.30 in - Variable 2.3 mph - N/A   Clear
5:00 AM 42.8 °F 14.0 °F 31% 30.30 in - Variable 2.3 mph - N/A   Clear
6:00 AM 40 °F 13 °F 20%  in 12 mi Calm Calm - -  
6:00 AM 41.0 °F 14.0 °F 33% 30.30 in - Calm Calm - N/A   Clear
7:00 AM 41.0 °F 12.2 °F 31% 30.33 in - Calm Calm - N/A   Clear
8:00 AM 41.0 °F 12.2 °F 31% 30.36 in - Calm Calm - N/A   Clear
9:00 AM 48 °F 15 °F 14%  in 12 mi ESE 1.2 mph - -  
9:00 AM 48.2 °F 14.0 °F 25% 30.36 in - Variable 1.2 mph - N/A   Clear
10:00 AM 53.6 °F 50.0 °F 88% 30.39 in - Calm Calm - N/A   Clear
11:00 AM 59.0 °F 15.8 °F 19% 30.39 in - Calm Calm - N/A   Clear
12:00 PM 63 °F 15 °F 7%  in 12 mi Calm Calm - -  
12:00 PM 62.6 °F 14.0 °F 15% 30.36 in - Calm Calm - N/A   Clear
1:00 PM 66.2 °F 17.6 °F 15% 30.33 in - Variable 1.2 mph - N/A   Clear
2:00 PM 69.8 °F 15.8 °F 13% 30.30 in - Variable 3.5 mph - N/A   Clear
3:00 PM 71 °F 18 °F 6%  in 6 mi NNW 2.3 mph - -  
3:00 PM 71.6 °F 17.6 °F 13% 30.27 in - Variable 2.3 mph - N/A   Clear
4:00 PM 73.4 °F 14.0 °F 10% 30.24 in - Variable 3.5 mph - N/A   Clear
5:00 PM 71.6 °F 14.0 °F 11% 30.24 in - SE 6.9 mph - N/A   Clear
6:00 PM 70 °F 15 °F 5%  in 6 mi SE 8.1 mph - -  
6:00 PM 69.8 °F 15.8 °F 13% 30.24 in - SE 8.1 mph - N/A   Clear
7:00 PM 68.0 °F 14.0 °F 12% 30.24 in - SSE 5.8 mph - N/A   Clear
8:00 PM 64.4 °F 14.0 °F 14% 30.27 in - SE 4.6 mph - N/A   Clear
9:00 PM 63 °F 15 °F 7%  in 6 mi SSE 2.3 mph - -  
9:00 PM 62.6 °F 14.0 °F 15% 30.27 in - Variable 2.3 mph - N/A   Clear
10:00 PM 59.0 °F 15.8 °F 19% 30.30 in - Variable 1.2 mph - N/A   Clear
11:00 PM 60.8 °F 14.0 °F 16% 30.30 in - SSE 5.8 mph - N/A   Clear